• In Italy
  • List of Countries
  • For 7 days
  • Water Temperature
  • Satellite Maps
  • Weather Map
  • Weather Widgets
  • user-avatar
    Login

    Hourly Weather Kropivnitskyi (Kirovohrad)

    Today, 19 September, Wednesday

    Time Temperature Precipitation Wind Pressure Humidity
    00:00 +18°C° 0 mm 1 mps 756 mmHg 64%
    01:00 +18°C° 0 mm 1 mps 756 mmHg 65%
    02:00 +17°C° 0 mm 2 mps 756 mmHg 66%
    03:00 +16°C° 0 mm 1 mps 756 mmHg 67%
    04:00 +16°C° 0 mm 1 mps 756 mmHg 69%
    05:00 +16°C° 0 mm 1 mps 757 mmHg 70%
    06:00 +18°C° 0 mm 1 mps 757 mmHg 66%
    07:00 +20°C° 0 mm 1 mps 757 mmHg 61%
    08:00 +21°C° 0 mm 1 mps 757 mmHg 55%
    09:00 +23°C° 0 mm 1 mps 757 mmHg 51%
    10:00 +24°C° 0 mm 1 mps 757 mmHg 46%
    11:00 +26°C° 0 mm 2 mps 757 mmHg 42%
    12:00 +26°C° 0 mm 2 mps 757 mmHg 39%
    13:00 +27°C° 0 mm 2 mps 757 mmHg 36%
    14:00 +28°C° 0 mm 2 mps 757 mmHg 33%
    15:00 +27°C° 0 mm 2 mps 756 mmHg 35%
    16:00 +27°C° 0 mm 1 mps 756 mmHg 38%
    17:00 +26°C° 0 mm 1 mps 756 mmHg 40%
    18:00 +25°C° 0 mm 1 mps 756 mmHg 42%
    19:00 +23°C° 0 mm 1 mps 756 mmHg 45%
    20:00 +20°C° 0 mm 0 mps 756 mmHg 47%
    21:00 +19°C° 0 mm 0 mps 756 mmHg 49%
    22:00 +21°C° 0 mm 1 mps 756 mmHg 50%
    23:00 +20°C° 0 mm 1 mps 756 mmHg 51%

    Tomorrow, 20 September, Thursday

    Time Temperature Precipitation Wind Pressure Humidity
    00:00 +20°C° 0 mm 1 mps 756 mmHg 53%
    01:00 +20°C° 0 mm 1 mps 756 mmHg 54%
    02:00 +19°C° 0 mm 1 mps 756 mmHg 55%
    03:00 +19°C° 0 mm 1 mps 756 mmHg 56%
    04:00 +19°C° 0 mm 1 mps 756 mmHg 57%
    05:00 +18°C° 0 mm 1 mps 756 mmHg 58%
    06:00 +20°C° 0 mm 1 mps 756 mmHg 55%
    07:00 +21°C° 0 mm 1 mps 756 mmHg 52%
    08:00 +23°C° 0 mm 1 mps 756 mmHg 49%
    09:00 +24°C° 0 mm 2 mps 756 mmHg 44%
    10:00 +26°C° 0 mm 2 mps 756 mmHg 40%
    11:00 +27°C° 0 mm 2 mps 756 mmHg 36%
    12:00 +28°C° 0 mm 2 mps 756 mmHg 34%
    13:00 +28°C° 0 mm 2 mps 756 mmHg 32%
    14:00 +29°C° 0 mm 2 mps 755 mmHg 30%
    15:00 +28°C° 0 mm 2 mps 755 mmHg 33%
    16:00 +28°C° 0 mm 2 mps 755 mmHg 36%
    17:00 +27°C° 0 mm 2 mps 755 mmHg 38%
    18:00 +25°C° 0 mm 1 mps 755 mmHg 41%
    19:00 +24°C° 0 mm 1 mps 755 mmHg 45%
    20:00 +22°C° 0 mm 1 mps 755 mmHg 48%
    21:00 +22°C° 0 mm 1 mps 755 mmHg 50%
    22:00 +21°C° 0 mm 1 mps 755 mmHg 52%
    23:00 +21°C° 0 mm 1 mps 755 mmHg 55%

    Day after tomorrow, 21 September, Friday

    Time Temperature Precipitation Wind Pressure Humidity
    00:00 +20°C° 0 mm 1 mps 755 mmHg 57%
    01:00 +20°C° 0 mm 1 mps 755 mmHg 59%
    02:00 +20°C° 0 mm 1 mps 755 mmHg 61%
    03:00 +19°C° 0 mm 1 mps 755 mmHg 63%
    04:00 +19°C° 0 mm 1 mps 755 mmHg 65%
    05:00 +19°C° 0 mm 1 mps 755 mmHg 66%
    06:00 +20°C° 0 mm 1 mps 755 mmHg 63%
    07:00 +21°C° 0 mm 1 mps 755 mmHg 60%
    08:00 +23°C° 0 mm 1 mps 755 mmHg 56%
    09:00 +24°C° 0 mm 1 mps 755 mmHg 52%
    10:00 +26°C° 0 mm 1 mps 755 mmHg 47%
    11:00 +27°C° 0 mm 1 mps 755 mmHg 43%
    12:00 +28°C° 0 mm 1 mps 755 mmHg 40%
    13:00 +28°C° 0 mm 1 mps 755 mmHg 37%
    14:00 +29°C° 0 mm 1 mps 755 mmHg 34%
    15:00 +28°C° 0 mm 1 mps 754 mmHg 36%
    16:00 +28°C° 0 mm 1 mps 754 mmHg 38%
    17:00 +27°C° 0 mm 1 mps 754 mmHg 40%
    18:00 +26°C° 0 mm 2 mps 754 mmHg 43%
    19:00 +24°C° 0 mm 2 mps 754 mmHg 46%
    20:00 +23°C° 0 mm 2 mps 754 mmHg 49%
    21:00 +21°C° 0 mm 2 mps 754 mmHg 50%
    22:00 +21°C° 0 mm 2 mps 754 mmHg 51%
    23:00 +20°C° 0 mm 2 mps 754 mmHg 52%

    22 September, Saturday

    Time Temperature Precipitation Wind Pressure Humidity
    00:00 +20°C° 0 mm 2 mps 754 mmHg 53%
    01:00 +21°C° 0 mm 1 mps 754 mmHg 53%
    02:00 +21°C° 0 mm 1 mps 754 mmHg 54%
    03:00 +20°C° 0 mm 1 mps 754 mmHg 55%
    04:00 +20°C° 0 mm 1 mps 754 mmHg 56%
    05:00 +20°C° 0 mm 1 mps 754 mmHg 56%
    06:00 +21°C° 0 mm 1 mps 754 mmHg 53%
    07:00 +22°C° 0 mm 1 mps 754 mmHg 51%
    08:00 +24°C° 0 mm 2 mps 754 mmHg 48%
    09:00 +25°C° 0 mm 2 mps 754 mmHg 43%
    10:00 +27°C° 0 mm 2 mps 754 mmHg 38%
    11:00 +29°C° 0 mm 2 mps 754 mmHg 34%
    12:00 +29°C° 0 mm 2 mps 753 mmHg 32%
    13:00 +30°C° 0 mm 3 mps 753 mmHg 30%
    14:00 +30°C° 0 mm 3 mps 752 mmHg 28%
    15:00 +29°C° 0 mm 2 mps 752 mmHg 30%
    16:00 +29°C° 0 mm 2 mps 752 mmHg 33%
    17:00 +28°C° 0 mm 2 mps 751 mmHg 35%
    18:00 +27°C° 0 mm 2 mps 751 mmHg 37%
    19:00 +25°C° 0 mm 2 mps 752 mmHg 39%
    20:00 +24°C° 0 mm 2 mps 752 mmHg 40%
    21:00 +23°C° 0 mm 2 mps 751 mmHg 42%
    22:00 +21°C° 0 mm 2 mps 751 mmHg 44%
    23:00 +21°C° 0 mm 2 mps 751 mmHg 46%

    23 September, Sunday

    Time Temperature Precipitation Wind Pressure Humidity
    00:00 +20°C° 0 mm 3 mps 751 mmHg 49%
    01:00 +20°C° 0 mm 3 mps 750 mmHg 51%
    02:00 +19°C° 0 mm 3 mps 750 mmHg 53%
    03:00 +19°C° 0 mm 3 mps 749 mmHg 54%
    04:00 +19°C° 0 mm 3 mps 749 mmHg 56%
    05:00 +19°C° 0 mm 4 mps 749 mmHg 57%
    06:00 +19°C° 0 mm 4 mps 749 mmHg 56%
    07:00 +20°C° 0 mm 5 mps 749 mmHg 55%
    08:00 +20°C° 0 mm 6 mps 749 mmHg 54%
    09:00 +19°C° 0.2 mm 6 mps 750 mmHg 59%
    10:00 +17°C° 0.2 mm 7 mps 750 mmHg 64%
    11:00 +15°C° 0.2 mm 8 mps 751 mmHg 69%
    12:00 +15°C° 0.4 mm 8 mps 751 mmHg 67%
    13:00 +13°C° 0.4 mm 8 mps 751 mmHg 65%
    14:00 +14°C° 0.4 mm 7 mps 752 mmHg 63%
    15:00 +14°C° 0 mm 7 mps 752 mmHg 60%
    16:00 +15°C° 0 mm 6 mps 752 mmHg 58%
    17:00 +15°C° 0 mm 5 mps 753 mmHg 55%
    18:00 +14°C° 0 mm 4 mps 753 mmHg 59%
    19:00 +13°C° 0 mm 3 mps 753 mmHg 62%
    20:00 +13°C° 0 mm 2 mps 754 mmHg 66%
    21:00 +13°C° 0 mm 2 mps 754 mmHg 68%
    22:00 +12°C° 0 mm 2 mps 754 mmHg 70%
    23:00 +12°C° 0 mm 2 mps 754 mmHg 72%

    24 September, Monday

    Time Temperature Precipitation Wind Pressure Humidity
    00:00 +11°C° 0 mm 1 mps 754 mmHg 73%
    01:00 +11°C° 0 mm 1 mps 754 mmHg 74%
    02:00 +11°C° 0 mm 1 mps 754 mmHg 75%
    03:00 +11°C° 0 mm 1 mps 754 mmHg 76%
    04:00 +10°C° 0 mm 1 mps 754 mmHg 76%
    05:00 +10°C° 0 mm 1 mps 754 mmHg 77%
    06:00 +12°C° 0 mm 2 mps 754 mmHg 72%
    07:00 +12°C° 0 mm 3 mps 755 mmHg 67%
    08:00 +13°C° 0 mm 3 mps 755 mmHg 62%
    09:00 +15°C° 0 mm 4 mps 755 mmHg 55%
    10:00 +17°C° 0 mm 4 mps 754 mmHg 47%
    11:00 +19°C° 0 mm 5 mps 754 mmHg 40%
    12:00 +20°C° 0 mm 5 mps 754 mmHg 36%
    13:00 +21°C° 0 mm 5 mps 753 mmHg 32%
    14:00 +22°C° 0 mm 5 mps 752 mmHg 28%
    15:00 +21°C° 0 mm 5 mps 752 mmHg 29%
    16:00 +20°C° 0 mm 4 mps 751 mmHg 30%
    17:00 +20°C° 0 mm 4 mps 751 mmHg 30%
    18:00 +19°C° 0 mm 4 mps 751 mmHg 31%
    19:00 +18°C° 0 mm 4 mps 751 mmHg 32%
    20:00 +15°C° 0 mm 4 mps 751 mmHg 32%
    21:00 +15°C° 0 mm 4 mps 751 mmHg 34%
    22:00 +14°C° 0 mm 4 mps 751 mmHg 35%
    23:00 +14°C° 0 mm 4 mps 751 mmHg 37%
    Show more